Weather observations for the past three days for
Pittsburgh/Butler Regional Airport
Imperial (Metric)
Date Time (edt) Wind (mph) Vis. (mi.) Weather Sky Cond. Temperature (ºF) Relative Humidity Wind Chill (°F) Heat Index (°F) Pressure Precipitation (in)
Air Dwpt 6 hour altimeter (in) sea level (mb) 1 hr 3 hr 6 hr
Max. Min.
21 07:56 Calm 10.00 Fair CLR 62.1 57.9 63 55 86% 30.14 1020.4
21 06:56 Calm 10.00 Fair CLR 57 55.9 96% 30.13 1020.3
21 05:56 Calm 10.00 Fair CLR 55 55 100% 30.13 1020.1
21 04:56 Calm 10.00 Mostly Cloudy BKN065 57.9 55.9 93% 30.11 1019.5
21 03:56 Calm 10.00 Fair CLR 57.9 55.9 93% 30.1 1019.1
21 02:56 Calm 10.00 Mostly Cloudy BKN070 59 57 93% 30.11 1019.4
21 01:56 Calm 10.00 Mostly Cloudy BKN065 63 55.9 78.1 62.1 78% 30.11 1019.2
21 00:56 N 3 10.00 Mostly Cloudy BKN065 64 55.9 75% 30.11 1019.2
20 23:56 N 3 10.00 Fair CLR 64.9 57 76% 30.1 1019.2
20 22:56 N 6 10.00 Fair CLR 66 57 73% 30.1 1019.1
20 21:56 N 7 10.00 Fair CLR 71.1 55.9 59% 30.09 1018.9
20 20:56 N 5 10.00 Fair CLR 73.9 55.9 54% 30.08 1018.5
20 19:56 N 6 10.00 Fair CLR 78.1 57 86 78.1 48% 79 30.08 1018.3
20 18:56 N 7 10.00 Fair CLR 81 57.9 45% 81 30.07 1018.0
20 17:56 N 10 10.00 Fair CLR 82 57.9 44% 82 30.06 1017.7
20 16:56 Vrbl 5 10.00 Fair CLR 84 57.9 41% 83 30.07 1018.0
20 15:56 NW 9 10.00 Fair CLR 82.9 59 44% 83 30.07 1018.2
20 14:56 NW 7 10.00 Partly Cloudy SCT065 82 57.9 44% 82 30.09 1018.7
20 13:56 Calm 10.00 A Few Clouds FEW065 84 57 84 64 40% 83 30.1 1019.0
20 12:56 W 5 10.00 Fair CLR 82 57.9 44% 82 30.11 1019.4
20 11:56 Calm 10.00 Fair CLR 79 55 44% 80 30.12 1019.8
20 10:56 N 8 10.00 Fair CLR 75.9 57.9 54% 78 30.12 1019.9
20 09:56 N 7 10.00 Fair CLR 72 59 64% 30.13 1020.0
20 08:56 N 6 10.00 Fair CLR 69.1 59 70% 30.13 1020.1
20 07:56 Calm 10.00 Partly Cloudy SCT065 64 57.9 64 59 81% 30.13 1020.2
20 06:56 N 7 10.00 Fair CLR 61 57.9 90% 30.12 1019.9
20 05:56 NE 6 10.00 Mostly Cloudy BKN070 60.1 57.9 93% 30.12 1019.7
20 04:56 NE 5 10.00 Fair CLR 61 57.9 90% 30.1 1019.2
20 03:56 NE 5 10.00 Fair CLR 61 57.9 90% 30.11 1019.4
20 02:56 NE 3 10.00 Fair CLR 61 57.9 90% 30.12 1019.9
20 01:56 N 6 10.00 Fair CLR 60.1 57.9 75.9 60.1 93% 30.14 1020.5
20 00:56 NE 6 10.00 Fair CLR 64 57 78% 30.15 1020.7
19 23:56 N 3 10.00 Fair CLR 62.1 57 84% 30.15 1021.0
19 22:56 Calm 10.00 Fair CLR 66 55.9 70% 30.15 1020.8
19 21:56 N 3 10.00 Fair CLR 68 55 63% 30.15 1020.9
19 20:56 N 5 10.00 Fair CLR 72 54 53% 30.14 1020.6
19 19:56 NW 6 10.00 Fair CLR 75.9 54 81 75.9 47% 78 30.13 1020.3
19 18:56 N 7 10.00 Fair CLR 78.1 53.1 42% 79 30.12 1020.1
19 17:56 NW 5 10.00 Fair CLR 80.1 52 38% 80 30.12 1020.1
19 16:56 Calm 10.00 Fair CLR 79 50 36% 79 30.14 1020.7
19 15:56 S 5 10.00 Fair CLR 80.1 50 35% 80 30.16 1021.3
19 14:56 Vrbl 6 10.00 Fair CLR 78.1 50 37% 79 30.17 1021.7
19 13:56 W 6 10.00 Fair CLR 77 53.1 77 59 43% 78 30.18 1022.1
19 12:56 Vrbl 6 10.00 Fair CLR 75 55 50% 78 30.2 1022.5
19 11:56 SE 7 10.00 Fair CLR 72 54 53% 30.21 1022.9
19 10:56 Vrbl 3 10.00 Fair CLR 71.1 55 57% 30.22 1023.3
19 09:56 E 6 10.00 Fair CLR 69.1 57 66% 30.22 1023.3
19 08:56 E 6 10.00 Fair CLR 64.9 57.9 78% 30.22 1023.4
19 07:56 NE 5 10.00 Fair CLR 59 57 59 51.1 93% 30.21 1023.1
19 06:56 Calm 10.00 Fair CLR 53.1 53.1 100% 30.19 1022.5
19 05:56 NE 3 9.00 Fair CLR 53.1 53.1 100% 30.17 1021.9
19 04:56 Calm 10.00 Fair CLR 53.1 53.1 100% 30.16 1021.7
19 03:56 Calm 10.00 Fair CLR 54 54 100% 30.16 1021.5
19 02:56 Calm 10.00 Fair CLR 55 55 100% 30.16 1021.2
19 01:56 Calm 10.00 Fair CLR 55.9 55 70 55 97% 30.16 1021.4
19 00:56 Calm 10.00 Fair CLR 57.9 55.9 93% 30.17 1021.6
18 23:56 N 3 10.00 Fair CLR 61 55 81% 30.15 1021.0
18 22:56 N 6 10.00 Fair CLR 62.1 54 75% 30.14 1020.7
18 21:56 Vrbl 3 10.00 Fair CLR 64 54 70% 30.13 1020.2
18 20:56 N 7 10.00 Fair CLR 66.9 53.1 61% 30.11 1019.6
18 19:56 NW 6 10.00 Fair CLR 70 53.1 77 70 55% 30.1 1019.1
18 18:56 N 8 10.00 Fair CLR 73.9 57 56% 30.07 1018.3
18 17:56 NW 10 10.00 A Few Clouds FEW070 75.9 57 52% 78 30.06 1018.0
18 16:56 NW 7 10.00 Mostly Cloudy SCT047 BKN070 75 57 54% 78 30.06 1017.9
18 15:56 NW 7 10.00 Mostly Cloudy SCT049 BKN065 73.9 57 56% 30.07 1018.1
18 14:56 N 9 10.00 Mostly Cloudy SCT041 BKN060 75.9 59 56% 78 30.07 1018.2
18 13:56 NW 5 10.00 A Few Clouds FEW043 75 59 75.9 63 58% 77 30.07 1018.1
18 12:56 NW 6 10.00 Fair CLR 75 57 54% 78 30.07 1018.2
18 11:56 N 6 10.00 Fair CLR 73 57.9 59% 30.08 1018.4
18 10:56 Vrbl 6 8.00 Fair CLR 70 59 68% 30.07 1018.1
18 09:56 N 7 10.00 Partly Cloudy SCT013 69.1 63 81% 30.07 1018.0
18 08:56 NE 8 10.00 Overcast BKN009 OVC060 64 64 100% 30.06 1017.9
Date Time (edt) Wind (mph) Vis. (mi.) Weather Sky Cond. Air Dwpt Max. Min. Relative Humidity Wind Chill (°F) Heat Index (°F) altimeter (in) sea level (mb) 1 hr 3 hr 6 hr
6 hour
Temperature (ºF) Pressure Precipitation (in)